Location: *
(33.8649°S, 62.1526°E)
Time: 13:06:50
(UTC+00:00)

Cosmos 1943 Rocket - Pass Details

Date: 17 January 2021
Orbit: 810 x 845 km, 71.0° (Epoch: 02 March)

Event Time Altitude Azimuth Distance (km) Brightness Sun altitude
Rises 17:24:16 0° 222° (SW) 3,363 6.8 -23.9°
Reaches altitude 10° 17:27:38 10° 243° (WSW) 2,418 5.5 -24.3°
Maximum altitude 17:30:50 16° 279° (W) 2,024 4.5 -24.8°
Drops below altitude 10° 17:34:02 10° 315° (NW) 2,397 4.5 -25.2°
Enters shadow 17:34:35 - 319° (NW) 2,524 4.6 -25.3°
